Location: Sternwarte Stuttgart
(48.7670°N, 9.1830°E)
Time: 10:39:47
(UTC+02:00)

IDEFIX/ARIANE 42P - Pass Details

Date: 24 January 2019
Orbit: 786 x 802 km, 98.3° (Epoch: 17 October)

Event Time Altitude Azimuth Distance (km) Brightness Sun altitude
Rises 04:14:08 0° 19° (NNE) 3,326 6.2 -37.4°
Reaches altitude 10° 04:16:36 10° 26° (NNE) 2,391 5.4 -37.0°
Enters shadow 04:19:02 26° 42° (NE) 1,557 4.4 -36.6°
